sat.trackr.live / text

‹ back to catalog

STARLINK-3397

NORAD 51115 · 2022-005M

PAYLOAD ACTIVE UNKNOWN

§ Identity

Operator
Country
US
Launch date
2022-01-19
Launch site
AFETR
Launch vehicle
Mass (kg)
RCS (m²)

Purposes: comms

External: N2YO · Heavens-Above · Gunter

§ Orbital elements

Epoch: 2026-05-24T20:33:40.802400Z

Period
95.44 min
Inclination
53.2168°
Eccentricity
0.0001335
Mean motion
15.08842358 rev/d
Perigee alt
538.8 km
Apogee alt
540.7 km
Semi-major
6,917.9 km
B*
4.3381e-5
RAAN
307.1915°
Arg perigee
91.0517°
Mean anomaly
269.0628°
Rev number
24,037

§ Raw data

STARLINK-33971 51115U 22005M   26144.85672225  .00000403  00000+0  43381-4 0  99952 51115  53.2168 307.1915 0001335  91.0517 269.0628 15.08842358240374

JSON: /api/v1/satellites/51115 · /tle

For live sub-satellite position, see the globe view (requires WebGL).

§ Visibility from observer

Set your observer location to see the next 7 days of passes ≥ 10°. The values pass through the URL so the page stays shareable.

No JS? Fill the form by hand. The geolocation button needs JavaScript.